| time (UTC) | temp C | wind direction | speed KPH | gust KPH | rain 1hr cm | rain 24hr cm | rain mn cm | humidity % | barometer mb |
| 20260906113242 | 23 | 213 | 0.0 | 0.0 | 0.00 | 0.00 | 0.00 | 99 | |
| 20260906110242 | 23 | 213 | 0.0 | 0.0 | 0.00 | 0.00 | 0.00 | 99 | |
| 20260906103243 | 23 | 213 | 0.0 | 0.0 | 0.00 | 0.00 | 0.00 | 99 | |
| 20260906100242 | 24 | 213 | 0.0 | 0.0 | 0.00 | 0.00 | 0.00 | 99 | |
| 20260906093243 | 24 | 213 | 0.0 | 0.0 | 0.00 | 0.00 | 0.00 | 99 | |
| 20260906090242 | 25 | 215 | 0.0 | 0.0 | 0.00 | 0.00 | 0.00 | 99 | |
| 20260906083242 | 25 | 215 | 0.0 | 0.0 | 0.00 | 0.00 | 0.00 | 99 | |
| 20260906080243 | 25 | 215 | 0.0 | 0.0 | 0.00 | 0.00 | 0.00 | 99 | |
| 20260906073242 | 25 | 215 | 0.0 | 0.0 | 0.00 | 0.00 | 0.00 | 99 | |
| 20260906070242 | 25 | 215 | 0.0 | 0.0 | 0.00 | 0.00 | 0.00 | 99 | |
| 20260906063242 | 25 | 231 | 0.0 | 0.0 | 0.00 | 0.00 | 0.00 | 99 | |
| 20260906060242 | 25 | 231 | 0.0 | 0.0 | 0.00 | 0.00 | 0.00 | 98 | |
| 20260906053242 | 25 | 231 | 0.0 | 0.0 | 0.00 | 0.00 | 0.00 | 98 | |
| 20260906050242 | 25 | 253 | 0.0 | 0.0 | 0.00 | 0.00 | 0.00 | 98 | |
| 20260906043242 | 26 | 104 | 0.0 | 0.0 | 0.00 | 0.00 | 0.00 | 97 | |
| 20260906040242 | 26 | 79 | 0.0 | 0.0 | 0.00 | 0.00 | 0.00 | 96 | |
| 20260906033242 | 26 | 199 | 0.0 | 0.0 | 0.00 | 0.00 | 0.00 | 95 | |
| 20260906030242 | 26 | 69 | 0.0 | 0.0 | 0.00 | 0.00 | 0.00 | 94 | |
| 20260906023243 | 26 | 292 | 0.0 | 0.0 | 0.00 | 0.00 | 0.00 | 94 | |
| 20260906020244 | 26 | 292 | 0.0 | 0.0 | 0.00 | 0.00 | 0.00 | 93 | |
| 20260906013243 | 27 | 292 | 0.0 | 0.0 | 0.00 | 0.00 | 0.00 | 91 | |
| 20260906010242 | 27 | 292 | 0.0 | 0.0 | 0.00 | 0.00 | 0.00 | 90 | |
| 20260906003242 | 28 | 291 | 0.0 | 0.0 | 0.00 | 0.00 | 0.00 | 89 | |
| 20260906000242 | 29 | 291 | 0.0 | 0.0 | 0.00 | 0.00 | 0.00 | 84 | |
| 20260905233242 | 30 | 59 | 0.0 | 0.0 | 0.00 | 0.00 | 0.00 | 80 | |
| 20260905230242 | 31 | 199 | 0.0 | 0.0 | 0.00 | 0.00 | 0.00 | 74 | |
| 20260905223242 | 32 | 141 | 0.0 | 0.0 | 0.00 | 0.00 | 0.00 | 72 | |
| 20260905220243 | 33 | 290 | 0.0 | 0.0 | 0.00 | 0.00 | 0.00 | 67 | |
| 20260905213242 | 34 | 237 | 0.0 | 4.8 | 0.00 | 0.00 | 0.00 | 62 | |
| 20260905210242 | 33 | 13 | 0.0 | 0.0 | 0.00 | 0.00 | 0.00 | 66 | |
| 20260905203242 | 33 | 276 | 4.8 | 4.8 | 0.00 | 0.00 | 0.00 | 63 | |
| 20260905200242 | 33 | 280 | 0.0 | 0.0 | 0.00 | 0.00 | 0.00 | 62 | |
| 20260905193242 | 33 | 295 | 4.8 | 4.8 | 0.00 | 0.00 | 0.00 | 63 | |
| 20260905190242 | 33 | 86 | 0.0 | 0.0 | 0.00 | 0.00 | 0.00 | 63 | |
| 20260905183243 | 33 | 38 | 4.8 | 4.8 | 0.00 | 0.00 | 0.00 | 65 | |
| 20260905180243 | 31 | 11 | 4.8 | 6.4 | 0.00 | 0.00 | 0.00 | 71 | |
| 20260905173242 | 31 | 250 | 8.0 | 8.0 | 0.00 | 0.00 | 0.00 | 71 | |
| 20260905170242 | 29 | 223 | 0.0 | 4.8 | 0.00 | 0.00 | 0.00 | 77 | |
| 20260905163244 | 29 | 207 | 6.4 | 8.0 | 0.00 | 0.00 | 0.00 | 78 | |
| 20260905160242 | 29 | 224 | 4.8 | 4.8 | 0.00 | 0.00 | 0.00 | 80 | |
| 20260905153244 | 29 | 274 | 4.8 | 4.8 | 0.00 | 0.00 | 0.00 | 80 | |
| 20260905150243 | 27 | 241 | 4.8 | 4.8 | 0.00 | 0.00 | 0.00 | 85 | |
| 20260905143244 | 27 | 103 | 4.8 | 4.8 | 0.00 | 0.00 | 0.00 | 86 | |
| 20260905140243 | 27 | 262 | 0.0 | 0.0 | 0.00 | 0.00 | 0.00 | 89 | |
| 20260905133243 | 26 | 191 | 0.0 | 0.0 | 0.00 | 0.00 | 0.00 | 90 | |
| 20260905130242 | 26 | 143 | 0.0 | 0.0 | 0.00 | 0.00 | 0.00 | 95 | |
| 20260905123244 | 25 | 137 | 0.0 | 0.0 | 0.00 | 0.00 | 0.00 | 98 | |
| 20260905120242 | 24 | 295 | 0.0 | 0.0 | 0.00 | 0.00 | 0.00 | 99 |